Weather History for Windom, MN

Change the Weather History Date:

Friday, July 6, 2012

  Actual Average Record
Temperature  
Mean Temperature 84 °F -  
Max Temperature 96 °F 85 °F 100 °F (1948)
Min Temperature 71 °F 60 °F 45 °F (1950)
Cooling Degree Days 20    
Growing Degree Days 34 (Base 50)    
Moisture  
Dew Point 73 °F    
Average Humidity 71    
Maximum Humidity 100    
Minimum Humidity 47    
Precipitation  
Precipitation 0.00 in - - ()
Sea Level Pressure  
Sea Level Pressure 29.92 in    
Wind  
Wind Speed 7 mph (South)    
Max Wind Speed 17 mph    
Max Gust Speed 21 mph    
Visibility 10 miles    
Events      
Averages and records for this station are not official NWS values.
T = Trace of Precipitation, MM = Missing Value Source: NWS Daily Summary

Daily Weather History Graph

Daily Weather History Graph

Search for Another Location

Airport:

Trip Planner

Search our weather history database for the weather conditions in past years. The results will help you decide how hot, cold, wet, or windy it might be!

Date:

Astronomy

Jul. 06, 2012 Rise Set
Actual Time 5:45 AM CDT 9:05 PM CDT
Civil Twilight 5:09 AM CDT 9:40 PM CDT
Nautical Twilight 4:23 AM CDT 10:27 PM CDT
Astronomical Twilight 3:25 AM CDT 11:24 PM CDT
Moon 10:45 PM CDT (7/6) 9:13 AM CDT (7/6)
Length of Visible Light 16h 31m
Length of Day
15h 19m
Waning Gibbous, 89% of the Moon is Illuminated
Jul 6
Waning Gibbous
Jul 10
Last Quarter
Jul 18
New
Jul 26
First Quarter
Aug 1
Full

Hourly Weather History & Observations

Time (CDT) Temp. Heat Index Dew Point Humidity Pressure Visibility Wind Dir Wind Speed Gust Speed Precip Events Conditions
12:13 AM 75.2 °F - 75.2 °F 100% 29.96 in 4.0 mi East 3.5 mph - N/A   Clear
12:32 AM 75.2 °F - 73.4 °F 94% 29.96 in 3.0 mi Calm Calm - N/A   Clear
12:52 AM 75.2 °F - 75.2 °F 100% 29.95 in 4.0 mi East 4.6 mph - N/A   Clear
1:32 AM 75.2 °F - 75.2 °F 100% 29.95 in 7.0 mi Calm Calm - N/A   Clear
1:52 AM 77.0 °F - 75.2 °F 94% 29.94 in 7.0 mi ESE 4.6 mph - N/A   Clear
2:12 AM 77.0 °F - 75.2 °F 94% 29.94 in 7.0 mi ESE 4.6 mph - N/A   Clear
2:32 AM 77.0 °F - 75.2 °F 94% 29.95 in 10.0 mi Calm Calm - N/A   Clear
2:52 AM 77.0 °F - 73.4 °F 89% 29.95 in 10.0 mi Calm Calm - N/A   Clear
3:13 AM 75.2 °F - 73.4 °F 94% 29.94 in 10.0 mi Calm Calm - N/A   Clear
3:32 AM 75.2 °F - 73.4 °F 94% 29.94 in 10.0 mi SE 4.6 mph - N/A   Clear
3:52 AM 75.2 °F - 73.4 °F 94% 29.93 in 10.0 mi SE 4.6 mph - N/A   Clear
4:13 AM 75.2 °F - 73.4 °F 94% 29.93 in 10.0 mi SSE 4.6 mph - N/A   Clear
4:32 AM 75.2 °F - 71.6 °F 89% 29.92 in 10.0 mi SSE 5.8 mph - N/A   Clear
4:52 AM 75.2 °F - 71.6 °F 89% 29.92 in 10.0 mi South 5.8 mph - N/A   Clear
5:13 AM 75.2 °F - 71.6 °F 89% 29.93 in 10.0 mi South 5.8 mph - N/A   Clear
5:32 AM 75.2 °F - 71.6 °F 89% 29.93 in 10.0 mi South 5.8 mph - N/A   Clear
5:53 AM 75.2 °F - 71.6 °F 89% 29.94 in 10.0 mi South 4.6 mph - N/A   Clear
6:12 AM 75.2 °F - 71.6 °F 89% 29.94 in 10.0 mi South 5.8 mph - N/A   Clear
6:32 AM 75.2 °F - 71.6 °F 89% 29.93 in 10.0 mi South 5.8 mph - N/A   Clear
6:53 AM 75.2 °F - 69.8 °F 83% 29.93 in 10.0 mi South 6.9 mph - N/A   Clear
7:32 AM 78.8 °F - 69.8 °F 74% 29.92 in 10.0 mi South 6.9 mph - N/A   Clear
7:53 AM 78.8 °F - 69.8 °F 74% 29.92 in 10.0 mi South 5.8 mph - N/A   Clear
8:32 AM 80.6 °F 83.9 °F 69.8 °F 70% 29.91 in 10.0 mi South 6.9 mph - N/A   Clear
8:52 AM 82.4 °F 86.3 °F 69.8 °F 66% 29.92 in 10.0 mi South 10.4 mph - N/A   Clear
9:13 AM 84.2 °F 88.4 °F 69.8 °F 62% 29.91 in 10.0 mi South 10.4 mph 16.1 mph N/A   Clear
9:32 AM 84.2 °F 88.4 °F 69.8 °F 62% 29.91 in 10.0 mi South 10.4 mph 17.3 mph N/A   Clear
9:52 AM 84.2 °F 88.4 °F 69.8 °F 62% 29.91 in 10.0 mi South 11.5 mph 17.3 mph N/A   Clear
10:13 AM 87.8 °F 93.8 °F 71.6 °F 58% 29.90 in 10.0 mi South 12.7 mph - N/A   Clear
10:32 AM 87.8 °F 93.8 °F 71.6 °F 58% 29.91 in 10.0 mi SSW 10.4 mph 19.6 mph N/A   Clear
10:52 AM 87.8 °F 93.8 °F 71.6 °F 58% 29.91 in 10.0 mi South 10.4 mph - N/A   Clear
11:13 AM 89.6 °F 96.2 °F 71.6 °F 55% 29.90 in 10.0 mi South 11.5 mph - N/A   Clear
11:32 AM 89.6 °F 98.2 °F 73.4 °F 59% 29.90 in 10.0 mi SSW 10.4 mph - N/A   Clear
11:52 AM 91.4 °F 98.4 °F 71.6 °F 52% 29.90 in 10.0 mi South 12.7 mph - N/A   Clear
12:32 PM 93.2 °F 102.4 °F 73.4 °F 52% 29.91 in 10.0 mi SSW 11.5 mph - N/A   Clear
12:52 PM 93.2 °F 102.4 °F 73.4 °F 52% 29.91 in 10.0 mi SSW 11.5 mph 17.3 mph N/A   Clear
1:12 PM 93.2 °F 102.4 °F 73.4 °F 52% 29.91 in 10.0 mi South 11.5 mph - N/A   Clear
1:32 PM 95.0 °F 104.5 °F 73.4 °F 49% 29.90 in 10.0 mi SSW 12.7 mph 17.3 mph N/A   Clear
1:53 PM 95.0 °F 104.5 °F 73.4 °F 49% 29.89 in 10.0 mi South 13.8 mph - N/A   Clear
2:12 PM 95.0 °F 107.4 °F 75.2 °F 53% 29.89 in 10.0 mi South 13.8 mph 18.4 mph N/A   Clear
2:32 PM 96.8 °F 107.3 °F 73.4 °F 47% 29.89 in 10.0 mi South 12.7 mph - N/A   Clear
2:53 PM 96.8 °F 107.3 °F 73.4 °F 47% 29.89 in 10.0 mi SSW 13.8 mph 19.6 mph N/A   Clear
3:12 PM 96.8 °F 107.3 °F 73.4 °F 47% 29.89 in 10.0 mi South 16.1 mph - N/A   Clear
3:32 PM 96.8 °F 109.6 °F 75.2 °F 50% 29.88 in 10.0 mi South 12.7 mph 18.4 mph N/A   Clear
3:53 PM 96.8 °F 107.3 °F 73.4 °F 47% 29.89 in 10.0 mi South 16.1 mph 19.6 mph N/A   Clear
4:12 PM 96.8 °F 109.6 °F 75.2 °F 50% 29.89 in 10.0 mi South 11.5 mph 17.3 mph N/A   Clear
4:32 PM 96.8 °F 107.3 °F 73.4 °F 47% 29.89 in 10.0 mi South 17.3 mph - N/A   Clear
5:12 PM 96.8 °F 109.6 °F 75.2 °F 50% 29.89 in 10.0 mi South 11.5 mph - N/A   Clear
5:32 PM 96.8 °F 109.6 °F 75.2 °F 50% 29.88 in 10.0 mi South 11.5 mph - N/A   Clear
5:53 PM 96.8 °F 109.6 °F 75.2 °F 50% 29.88 in 10.0 mi South 11.5 mph - N/A   Clear
6:12 PM 95.0 °F 107.4 °F 75.2 °F 53% 29.88 in 10.0 mi South 12.7 mph - N/A   Clear
6:32 PM 93.2 °F 105.0 °F 75.2 °F 56% 29.88 in 10.0 mi South 10.4 mph 17.3 mph N/A   Clear
6:53 PM 93.2 °F 105.0 °F 75.2 °F 56% 29.88 in 10.0 mi South 9.2 mph - N/A   Clear
7:12 PM 91.4 °F 102.5 °F 75.2 °F 59% 29.90 in 10.0 mi West 5.8 mph - N/A   Scattered Clouds
7:33 PM 93.2 °F 105.0 °F 75.2 °F 56% 29.91 in 10.0 mi West 5.8 mph - N/A   Scattered Clouds
7:52 PM 87.8 °F 97.6 °F 75.2 °F 66% 29.91 in 10.0 mi NNW 12.7 mph - N/A   Scattered Clouds
8:13 PM 84.2 °F 92.3 °F 75.2 °F 74% 29.93 in 10.0 mi NNW 15.0 mph 20.7 mph N/A   Scattered Clouds
8:32 PM 84.2 °F 92.3 °F 75.2 °F 74% 29.94 in 10.0 mi NNW 15.0 mph - N/A   Clear
8:52 PM 82.4 °F 88.2 °F 73.4 °F 74% 29.95 in 10.0 mi NNW 11.5 mph 15.0 mph N/A   Clear
9:12 PM 80.6 °F 85.4 °F 73.4 °F 79% 29.95 in 10.0 mi NW 12.7 mph - N/A   Clear
9:32 PM 80.6 °F 84.6 °F 71.6 °F 74% 29.96 in 10.0 mi North 13.8 mph - N/A   Clear
9:53 PM 78.8 °F - 71.6 °F 78% 29.97 in 10.0 mi North 11.5 mph 19.6 mph N/A   Clear
10:12 PM 77.0 °F - 69.8 °F 78% 29.97 in 10.0 mi North 11.5 mph 17.3 mph N/A   Clear
10:32 PM 75.2 °F - 69.8 °F 83% 29.98 in 10.0 mi NNW 11.5 mph 16.1 mph N/A   Clear
10:52 PM 75.2 °F - 68.0 °F 78% 29.98 in 10.0 mi NNW 15.0 mph 19.6 mph N/A   Clear
11:13 PM 73.4 °F - 66.2 °F 78% 29.99 in 10.0 mi North 17.3 mph - N/A   Clear
11:32 PM 73.4 °F - 66.2 °F 78% 30.01 in 10.0 mi North 13.8 mph - N/A   Clear
11:52 PM 71.6 °F - 66.2 °F 83% 30.01 in 10.0 mi North 12.7 mph 20.7 mph N/A   Clear